Regional Weather Roundup
Issued by NWS

Home | Current Version | Previous Version | Text Only | Print | Product List | Glossary On
Versions: 1 2 3 4 5 6 7 8 9 10 11 12 13 14 15 16 17 18 19 20 21 22 23 24 25 26 27 28 29 30 31 32 33 34 35 36 37 38 39 40 41 42 43 44 45 46 47 48 49 50
000
ASUS43 KBIS 211610
RWRND

NORTH DAKOTA REGIONAL WEATHER ROUNDUP
NATIONAL WEATHER SERVICE BISMARCK ND
1000 AM CST SUN JAN 21 2018

NOTE: "FAIR" INDICATES FEW OR NO CLOUDS BELOW 12,000 FEET WITH NO
SIGNIFICANT WEATHER AND/OR OBSTRUCTIONS TO VISIBILITY.


NDZ001>003-009>011-017-211700-
NORTHWEST NORTH DAKOTA

CITY           SKY/WX    TMP DP  RH WIND       PRES   REMARKS
WILLISTON      SUNNY     12  11  95 SW3       30.02R
MINOT          SUNNY     17  12  80 SW8       30.02R WCI   7
MINOT AFB      SUNNY     14  10  86 SW5       30.01R WCI   6
$$

NDZ018>021-031>035-040>046-211700-
SOUTHWEST NORTH DAKOTA

CITY           SKY/WX    TMP DP  RH WIND       PRES   REMARKS
BISMARCK       PTSUNNY   16  15  96 CALM      30.07R
DICKINSON      MOSUNNY   24  16  71 W10       29.98R WCI  14
GARRISON         N/A      8   6  92 CALM      30.02R
HETTINGER ARPT PTSUNNY   22  17  81 W6        30.02R WCI  14
$$

NDZ004>008-012>016-024-026-027-054-211700-
NORTHEAST NORTH DAKOTA

CITY           SKY/WX    TMP DP  RH WIND       PRES   REMARKS
GRAND FORKS    CLOUDY    23  22  96 N6        30.07R WCI  16
GRND FRKS AFB  PTSUNNY   23  22  94 N7        30.07R WCI  15
DEVILS LAKE    FOG       16  15  96 CALM      30.06R VSB<1/4
$$

NDZ022-023-025-028>030-036>039-047>053-211700-
SOUTHEAST NORTH DAKOTA

CITY           SKY/WX    TMP DP  RH WIND       PRES   REMARKS
FARGO          FOG       18  17  96 N10       30.05R VSB 1   WCI   6
JAMESTOWN      CLOUDY    18  16  92 N7        30.04R WCI   9
$$





USA.gov is the U.S. government's official web portal to all federal, state and local government web resources and services.